Flag for U.S.A. Weather past 2 weeks in Little Rock, Arkansas, U.S.A.

Now
72 °F

Passing clouds.


Feels Like: 74 °F
Forecast: 70 / 81 °F
Wind: 5 mph from Southeast

Location: Adams Field

Current Time: May 24, 2015 at 12:55:46 AM

Latest Report: May 23, 2015 at 11:53 PM


Visibility: 10 mi

Pressure: 30.06 "Hg

Humidity: 73%

Dew point: 63 °F

Location of Little RockLocation

Historic Weather in Little Rock — Graph

°F

Little Rock temperature yesterday

Maximum temperature yesterday: 82 °F (at 3:53 PM)
Minimum temperature yesterday: 62 °F (at 1:53 AM)
Average temperature yesterday: 72 °F

Past Weeks' High & Low Weather Summary

 TemperatureHumidityPressure
High85 °F (May 17, 4:53 PM)94% (May 11, 8:53 AM)30.34 "Hg (May 11, 8:53 AM)
Low52 °F (May 22, 3:53 AM)37% (May 12, 1:53 PM)29.90 "Hg (May 16, 4:53 PM)
Average71 °F73%30.09 "Hg
* Reported May 8 10:53 PM — May 23 10:53 PM, Little Rock, Weather by CustomWeather, © 2015

Note: Actual official high and low records may vary slightly from our data, if they occured in-between our weather recording intervals... More about our weather records

Advertising

Little Rock weather history for previous 24 hours

 ConditionsComfort  
Time TempWeatherWind HumidityBarometerVisibility
10:53 PM
Sat, May 23
73 °FPassing clouds.7 mph74%30.07 "Hg10 mi
9:53 PM73 °FPassing clouds.6 mph74%30.08 "Hg10 mi
8:53 PM76 °FPartly sunny.8 mph64%30.08 "Hg10 mi
7:53 PM78 °FBroken clouds.9 mph60%30.08 "Hg10 mi
6:53 PM79 °FBroken clouds.10 mph58%30.08 "Hg10 mi
5:53 PM80 °FOvercast.9 mph56%30.11 "Hg10 mi
4:53 PM81 °FBroken clouds.10 mph53%30.12 "Hg10 mi
3:53 PM82 °FBroken clouds.12 mph51%30.14 "Hg10 mi
2:53 PM79 °FPartly sunny.10 mph54%30.18 "Hg10 mi
1:53 PM78 °FPartly sunny.7 mph54%30.20 "Hg10 mi
12:53 PM78 °FBroken clouds.8 mph52%30.23 "Hg10 mi
11:53 AM75 °FBroken clouds.7 mph54%30.25 "Hg10 mi
10:53 AM72 °FCloudy.5 mph57%30.28 "Hg10 mi
9:53 AM70 °FMostly cloudy.8 mph61%30.27 "Hg10 mi
8:53 AM68 °FBroken clouds.6 mph65%30.27 "Hg10 mi
7:53 AM65 °FCloudy.6 mph73%30.27 "Hg10 mi
6:53 AM65 °FOvercast.No wind73%30.25 "Hg10 mi
5:53 AM63 °FOvercast.5 mph75%30.24 "Hg10 mi
4:53 AM62 °FPassing clouds.7 mph78%30.23 "Hg10 mi
3:53 AM64 °FMostly cloudy.8 mph73%30.21 "Hg10 mi
2:53 AM63 °FMostly cloudy.3 mph78%30.22 "Hg10 mi
1:53 AM62 °FOvercast.3 mph80%30.22 "Hg10 mi
12:53 AM63 °FPassing clouds.No wind78%30.22 "Hg10 mi
Weather by CustomWeather, © 2015

See weather overviewHow to use our weather pages